Location: Caltech
(34.1382°N, 118.1253°W)
Time: 10:27:58
(UTC-08:00)

COSMOS 2428 - Visible Passes

Search period start: 26 January 2015 00:00
Search period end: 05 February 2015 00:00
Orbit: 844 x 857 km, 71.0° (Epoch: 26 January)

Date Brightness Start Highest point End Pass type
(mag) Time Alt. Az. Time Alt. Az. Time Alt. Az.
29 Jan 4.6 06:22:57 10° N 06:27:46 28° ENE 06:32:39 10° ESE visible
30 Jan 4.6 06:10:37 10° N 06:15:25 28° ENE 06:20:18 10° ESE visible
31 Jan 4.6 05:58:16 10° N 06:03:04 28° ENE 06:07:56 10° ESE visible
01 Feb 4.6 05:45:56 10° N 05:50:43 28° ENE 05:55:35 10° ESE visible
02 Feb 4.6 05:33:35 10° N 05:38:22 28° ENE 05:43:14 10° ESE visible
02 Feb 5.2 20:21:46 10° SSW 20:21:58 11° SSW 20:21:58 11° SSW visible
03 Feb 4.6 05:21:14 10° N 05:26:01 28° ENE 05:30:53 10° ESE visible
03 Feb 4.5 20:09:24 10° SSW 20:11:19 22° SSW 20:11:19 22° SSW visible
04 Feb 4.6 05:08:53 10° N 05:13:40 28° ENE 05:18:31 10° ESE visible
04 Feb 4.5 18:17:23 10° ESE 18:18:40 11° ESE 18:18:40 11° ESE visible
04 Feb 3.6 19:57:04 10° SSW 20:00:47 42° SW 20:00:47 42° SW visible
